一网星座-0328星 (ONEWEB-0328 )

导读

ONEWEB-0328是英国OneWeb(一网公司)低轨卫星互联网星座的成员卫星,于2021年9月14日成功发射。OneWeb由英国政府与印度企业联合控股,致力于搭建全球低轨卫星通信网络,卫星部署在近地轨道,可提供高速低延迟的网络连接。该卫星的发射,推进了OneWeb第一代648颗卫星星座的组网进程,助力OneWeb实现覆盖全球的卫星通信服务目标。

基本信息
目录编号:
49197
目录名称:
ONEWEB-0328
国际标识:
2021-083M
轨道中心:
EARTH
卫星名称:
一网星座-0328星
卫星全名:
一网星座-0328星 (ONEWEB-0328 )
卫星状态:
在轨 (已飞行1823 天)
发射日期:
2021-09-14 UTC
国别 :
英国 (GB)
星等 :
--
该卫星已列入 空间交会检测服务 Space Conjunction Data Service (SCDS) ,当前飞行风险评估等级: 无高风险
轨道信息
数据来源 国际轨道数据 AOE轨道数据
星历时间 2026-09-11T09:45:56+0800
11小时前
查看轨道信息
2026-09-10T23:00:00+0800
22小时前
查看轨道信息
半长轴 7587.908km 7587.915km
偏心率 0.0001771 0.0001365
轨道倾角 87.894° 87.893°
近地点辐角 97.559° 75.796°
升交点赤经 303.129° 303.218°
平近点角 262.574° 324.498°
近地点 1208.427km 1208.742km
远地点 1211.115km 1210.814km
周期 109.633分钟 109.634分钟
每日圈数 13.134688 13.134668
详细信息
平衡模式:
三轴稳定
覆盖范围:
全球
运营商:
一网卫星公司
运营商所在国:
英国
制造商(研发单位):
一网卫星公司
制造商所在国:
英国
使用方式:
暂无
卫星简介
OneWeb卫星网络由648颗重约125公斤的微型卫星组成,运行在1200公里的轨道上。 每颗卫星都能够提供至少每秒8千兆位的吞吐量,以使用其高吞吐量的Ku频段有效载荷为家庭和移动平台提供互联网接入。该卫星仍在工作。
2D轨道图
3D轨道图
轨道高度分析图
轨道倾角分析图
轨道综合分析图
查看轨道综合分析图
与全量物体交会距离演化趋势
与全量物体交会风险概率演化趋势